Flag for Germany Weather past 2 weeks in Kerpen, North Rhine-Westphalia, Germany

Now
43 °F

Rain showers. Broken clouds.


Feels Like: 36 °F
Forecast: 45 / 55 °F
Wind: 13 mph from Southwest

Location: Noervenich

Current Time: Oct 22, 2014 at 10:39:32 AM

Latest Report: Oct 22, 2014 at 9:20 AM


Visibility: N/A

Pressure: 30.04 "Hg

Humidity: 93%

Dew point: 41 °F

Location of KerpenLocation

Historic Weather in Kerpen — Graph

°F

Kerpen temperature yesterday

Maximum temperature yesterday: 57 °F (at 12:20 PM)
Minimum temperature yesterday: 46 °F (at 9:20 PM)
Average temperature yesterday: 52 °F

Past Weeks' High & Low Weather Summary

 TemperatureHumidityPressure
High75 °F (Oct 19, 2:20 PM)100% (Oct 8, 10:47 PM)30.09 "Hg (Oct 8, 10:47 PM)
Low43 °F (Oct 22, 3:20 AM)46% (Oct 14, 2:20 PM)29.53 "Hg (Oct 7, 9:20 AM)
Average57 °F82%29.84 "Hg
* Reported Oct 7 9:20 AM — Oct 22 9:20 AM, Kerpen, Weather by CustomWeather, © 2014

Note: Actual official high and low records may vary slightly from our data, if they occured in-between our weather recording intervals... More about our weather records

Advertising

Kerpen weather history for previous 24 hours

 ConditionsComfort  
Time TempWeatherWind HumidityBarometerVisibility
9:20 AM
Oct 22
43 °FRain showers. Broken clouds.13 mph93%30.04 "HgN/A
8:20 AM45 °FSprinkles. Partly cloudy.16 mph87%30.01 "HgN/A
7:20 AM45 °FPassing clouds.15 mph87%29.98 "HgN/A
6:20 AM45 °FPassing clouds.17 mph87%29.95 "HgN/A
5:20 AM45 °FPassing clouds.17 mph81%29.95 "HgN/A
4:20 AM45 °FLight rain. Passing clouds.14 mph81%29.92 "HgN/A
3:20 AM43 °FLight rain. Partly cloudy.15 mph93%29.92 "HgN/A
2:20 AM45 °FSprinkles. Partly cloudy.12 mph81%29.92 "HgN/A
1:20 AM45 °FRain showers. Passing clouds.10 mph93%29.89 "HgN/A
12:20 AM46 °FSprinkles. Passing clouds.18 mph87%29.83 "HgN/A
11:20 PM
Oct 21
46 °FPassing clouds.18 mph82%29.80 "HgN/A
10:20 PM46 °FPassing clouds.20 mph76%29.74 "HgN/A
9:20 PM46 °FPassing clouds.21 mph82%29.71 "HgN/A
8:20 PM48 °FPassing clouds.17 mph76%29.71 "HgN/A
7:20 PM48 °FBroken clouds.20 mph76%29.68 "HgN/A
6:20 PM48 °FRain showers. Partly sunny.21 mph87%29.62 "Hg4 mi
5:20 PM52 °FSprinkles. Broken clouds.14 mph82%29.59 "Hg6 mi
4:20 PM55 °FRain showers. Partly sunny.15 mph88%29.53 "Hg3 mi
3:20 PM55 °FSprinkles. Broken clouds.9 mph82%29.56 "HgN/A
2:20 PM57 °FPartly sunny.12 mph77%29.59 "HgN/A
1:20 PM55 °FPartly sunny.8 mph82%29.65 "HgN/A
12:20 PM57 °FPartly sunny.12 mph67%29.68 "HgN/A
11:20 AM55 °FPartly sunny.7 mph72%29.74 "HgN/A
10:20 AM54 °FPartly sunny.3 mph82%29.77 "HgN/A
Weather by CustomWeather, © 2014

See weather overviewHow to use our weather pages